Station Historical Data
Daily Summary for November 6, 2017 Units:  English    Metric   Both
« Previous Day
Next Day »
Daily Weekly Monthly Yearly Custom
  High: Low: Average:
Temperature: 50.6 °F 41.0 °F 44.2 °F
Dew Point: 43.7 °F 37.7 °F 40.1 °F
Humidity: 89 % 71 % 86 %
Wind Speed: 9.0 mph 0.0 mph 0.8 mph
Wind Gust: 12.0 mph - -
Wind:- - South
Pressure: 30.23 in 30.15 in -
Precipitation: 0.00 in    
Historical Graphs
 
 
Tabular Data for November 6, 2017
Time Temperature Dew Point Pressure Wind Wind Speed Wind Gust Humidity Rainfall Rate (Hourly) solar
00:02 41.0 °F 37.7 °F 30.17 in Calm     88 % 0.00 in 0.00 W/m2
00:07 41.0 °F 37.7 °F 30.17 in Calm   5.0 mph 88 % 0.00 in 0.00 W/m2
00:12 41.0 °F 38.0 °F 30.17 in Calm     89 % 0.00 in 0.00 W/m2
00:17 41.1 °F 38.1 °F 30.17 in Calm     89 % 0.00 in 0.00 W/m2
00:22 41.1 °F 38.1 °F 30.17 in Calm   4.0 mph 89 % 0.00 in 0.00 W/m2
00:27 41.1 °F 38.1 °F 30.17 in SE 1.0 mph 1.0 mph 89 % 0.00 in 0.00 W/m2
00:32 41.2 °F 37.9 °F 30.17 in Calm     88 % 0.00 in 0.00 W/m2
00:37 41.2 °F 37.9 °F 30.17 in Calm   6.0 mph 88 % 0.00 in 0.00 W/m2
00:42 41.3 °F 38.0 °F 30.17 in Calm     88 % 0.00 in 0.00 W/m2
00:47 41.3 °F 38.0 °F 30.18 in Calm     88 % 0.00 in 0.00 W/m2
00:52 41.3 °F 38.0 °F 30.17 in Calm   6.0 mph 88 % 0.00 in 0.00 W/m2
00:57 41.3 °F 38.0 °F 30.17 in Calm     88 % 0.00 in 0.00 W/m2
01:02 41.4 °F 38.1 °F 30.17 in Calm     88 % 0.00 in 0.00 W/m2
01:07 41.3 °F 38.0 °F 30.17 in Calm   1.0 mph 88 % 0.00 in 0.00 W/m2
01:12 41.3 °F 38.0 °F 30.17 in Calm   6.0 mph 88 % 0.00 in 0.00 W/m2
01:17 41.3 °F 38.0 °F 30.17 in Calm   2.0 mph 88 % 0.00 in 0.00 W/m2
01:22 41.3 °F 38.0 °F 30.17 in Calm   5.0 mph 88 % 0.00 in 0.00 W/m2
01:27 41.3 °F 38.0 °F 30.17 in Calm     88 % 0.00 in 0.00 W/m2
01:32 41.3 °F 38.0 °F 30.17 in Calm   1.0 mph 88 % 0.00 in 0.00 W/m2
01:37 41.3 °F 38.0 °F 30.17 in Calm   4.0 mph 88 % 0.00 in 0.00 W/m2
01:42 41.3 °F 38.0 °F 30.17 in Calm   1.0 mph 88 % 0.00 in 0.00 W/m2
01:47 41.3 °F 38.0 °F 30.17 in Calm   4.0 mph 88 % 0.00 in 0.00 W/m2
01:52 41.3 °F 38.0 °F 30.17 in Calm   4.0 mph 88 % 0.00 in 0.00 W/m2
01:57 41.3 °F 38.0 °F 30.17 in Calm   4.0 mph 88 % 0.00 in 0.00 W/m2
02:02 41.3 °F 38.0 °F 30.17 in Calm   7.0 mph 88 % 0.00 in 0.00 W/m2
02:07 41.3 °F 38.0 °F 30.17 in Calm     88 % 0.00 in 0.00 W/m2
02:12 41.3 °F 38.0 °F 30.17 in Calm     88 % 0.00 in 0.00 W/m2
02:22 41.3 °F 38.0 °F 30.17 in Calm   6.0 mph 88 % 0.00 in 0.00 W/m2
02:27 41.3 °F 38.0 °F 30.17 in Calm     88 % 0.00 in 0.00 W/m2
02:33 41.3 °F 38.0 °F 30.17 in Calm   1.0 mph 88 % 0.00 in 0.00 W/m2
02:38 41.2 °F 37.9 °F 30.17 in Calm   6.0 mph 88 % 0.00 in 0.00 W/m2
02:43 41.2 °F 37.9 °F 30.17 in Calm   1.0 mph 88 % 0.00 in 0.00 W/m2
02:48 41.2 °F 37.9 °F 30.17 in Calm     88 % 0.00 in 0.00 W/m2
02:53 41.2 °F 38.2 °F 30.17 in Calm   4.0 mph 89 % 0.00 in 0.00 W/m2
02:58 41.1 °F 38.1 °F 30.17 in Calm     89 % 0.00 in 0.00 W/m2
03:03 41.1 °F 38.1 °F 30.17 in Calm   5.0 mph 89 % 0.00 in 0.00 W/m2
03:08 41.1 °F 38.1 °F 30.16 in Calm   2.0 mph 89 % 0.00 in 0.00 W/m2
03:13 41.1 °F 38.1 °F 30.16 in SE 4.0 mph 4.0 mph 89 % 0.00 in 0.00 W/m2
03:18 41.1 °F 38.1 °F 30.16 in Calm   6.0 mph 89 % 0.00 in 0.00 W/m2
03:23 41.1 °F 37.8 °F 30.16 in SE 5.0 mph 6.0 mph 88 % 0.00 in 0.00 W/m2
03:28 41.2 °F 37.9 °F 30.16 in Calm   5.0 mph 88 % 0.00 in 0.00 W/m2
03:33 41.3 °F 38.0 °F 30.16 in Calm   5.0 mph 88 % 0.00 in 0.00 W/m2
03:38 41.3 °F 38.0 °F 30.16 in Calm   4.0 mph 88 % 0.00 in 0.00 W/m2
03:43 41.4 °F 38.1 °F 30.16 in Calm     88 % 0.00 in 0.00 W/m2
03:48 41.4 °F 38.1 °F 30.16 in Calm     88 % 0.00 in 0.00 W/m2
03:53 41.5 °F 38.2 °F 30.16 in Calm     88 % 0.00 in 0.00 W/m2
03:58 41.6 °F 38.6 °F 30.17 in Calm     89 % 0.00 in 0.00 W/m2
04:03 41.6 °F 38.6 °F 30.17 in Calm     89 % 0.00 in 0.00 W/m2
04:08 41.7 °F 38.7 °F 30.17 in Calm     89 % 0.00 in 0.00 W/m2
04:13 41.8 °F 38.8 °F 30.17 in Calm     89 % 0.00 in 0.00 W/m2
04:18 41.9 °F 38.9 °F 30.17 in Calm     89 % 0.00 in 0.00 W/m2
04:23 41.9 °F 38.9 °F 30.17 in Calm     89 % 0.00 in 0.00 W/m2
04:28 41.9 °F 38.6 °F 30.17 in Calm   5.0 mph 88 % 0.00 in 0.00 W/m2
04:33 42.0 °F 38.7 °F 30.17 in Calm     88 % 0.00 in 0.00 W/m2
04:38 42.0 °F 38.7 °F 30.17 in Calm     88 % 0.00 in 0.00 W/m2
04:43 42.0 °F 38.7 °F 30.17 in Calm     88 % 0.00 in 0.00 W/m2
04:48 42.0 °F 38.7 °F 30.17 in Calm     88 % 0.00 in 0.00 W/m2
04:53 42.0 °F 38.7 °F 30.17 in Calm     88 % 0.00 in 0.00 W/m2
04:58 42.1 °F 38.8 °F 30.18 in Calm     88 % 0.00 in 0.00 W/m2
05:03 42.1 °F 38.8 °F 30.18 in Calm     88 % 0.00 in 0.00 W/m2
05:08 42.2 °F 38.9 °F 30.18 in Calm   1.0 mph 88 % 0.00 in 0.00 W/m2
05:13 42.2 °F 38.9 °F 30.18 in Calm     88 % 0.00 in 0.00 W/m2
05:18 42.2 °F 38.9 °F 30.18 in Calm     88 % 0.00 in 0.00 W/m2
05:23 42.2 °F 38.9 °F 30.19 in Calm     88 % 0.00 in 0.00 W/m2
05:28 42.2 °F 38.9 °F 30.18 in Calm     88 % 0.00 in 0.00 W/m2
05:33 42.2 °F 38.9 °F 30.19 in Calm     88 % 0.00 in 0.00 W/m2
05:39 42.2 °F 38.9 °F 30.19 in Calm     88 % 0.00 in 0.00 W/m2
05:44 42.2 °F 38.9 °F 30.19 in Calm     88 % 0.00 in 0.00 W/m2
05:49 42.2 °F 38.9 °F 30.19 in Calm     88 % 0.00 in 0.00 W/m2
05:54 42.2 °F 38.9 °F 30.19 in Calm     88 % 0.00 in 0.00 W/m2
05:59 42.2 °F 38.9 °F 30.19 in Calm     88 % 0.00 in 0.00 W/m2
06:04 42.3 °F 39.3 °F 30.19 in Calm     89 % 0.00 in 0.00 W/m2
06:09 42.3 °F 39.3 °F 30.19 in Calm     89 % 0.00 in 0.00 W/m2
06:14 42.3 °F 39.3 °F 30.19 in Calm     89 % 0.00 in 0.00 W/m2
06:19 42.3 °F 39.3 °F 30.19 in Calm     89 % 0.00 in 0.00 W/m2
06:24 42.4 °F 39.4 °F 30.19 in Calm     89 % 0.00 in 0.00 W/m2
06:29 42.4 °F 39.4 °F 30.20 in Calm     89 % 0.00 in 0.00 W/m2
06:34 42.4 °F 39.4 °F 30.20 in Calm     89 % 0.00 in 0.00 W/m2
06:39 42.4 °F 39.4 °F 30.20 in Calm     89 % 0.00 in 0.00 W/m2
06:44 42.3 °F 39.3 °F 30.20 in Calm     89 % 0.00 in 5.00 W/m2
06:49 42.4 °F 39.4 °F 30.20 in Calm     89 % 0.00 in 9.00 W/m2
06:54 42.4 °F 39.4 °F 30.20 in Calm     89 % 0.00 in 12.00 W/m2
06:59 42.4 °F 39.4 °F 30.20 in Calm     89 % 0.00 in 19.00 W/m2
07:04 42.4 °F 39.4 °F 30.20 in Calm     89 % 0.00 in 28.00 W/m2
07:09 42.4 °F 39.4 °F 30.20 in Calm     89 % 0.00 in 28.00 W/m2
07:14 42.4 °F 39.4 °F 30.20 in Calm     89 % 0.00 in 33.00 W/m2
07:19 42.4 °F 39.4 °F 30.20 in Calm     89 % 0.00 in 40.00 W/m2
07:24 42.4 °F 39.4 °F 30.21 in Calm     89 % 0.00 in 51.00 W/m2
07:29 42.4 °F 39.4 °F 30.21 in Calm     89 % 0.00 in 56.00 W/m2
07:34 42.4 °F 39.4 °F 30.21 in Calm     89 % 0.00 in 62.00 W/m2
07:39 42.4 °F 39.4 °F 30.21 in Calm     89 % 0.00 in 72.00 W/m2
07:44 42.4 °F 39.4 °F 30.21 in Calm     89 % 0.00 in 79.00 W/m2
07:49 42.4 °F 39.4 °F 30.21 in Calm     89 % 0.00 in 84.00 W/m2
07:54 42.5 °F 39.5 °F 30.22 in Calm     89 % 0.00 in 90.00 W/m2
08:00 42.7 °F 39.4 °F 30.22 in Calm     88 % 0.00 in 100.00 W/m2
08:05 42.8 °F 39.5 °F 30.22 in Calm     88 % 0.00 in 102.00 W/m2
08:10 42.9 °F 39.6 °F 30.22 in Calm     88 % 0.00 in 111.00 W/m2
08:15 43.0 °F 40.0 °F 30.22 in Calm   1.0 mph 89 % 0.00 in 114.00 W/m2
08:20 43.1 °F 40.1 °F 30.22 in Calm     89 % 0.00 in 146.00 W/m2
08:25 43.2 °F 39.9 °F 30.22 in Calm     88 % 0.00 in 141.00 W/m2
08:30 43.3 °F 40.0 °F 30.22 in Calm     88 % 0.00 in 148.00 W/m2
08:35 43.4 °F 40.1 °F 30.22 in Calm     88 % 0.00 in 176.00 W/m2
08:40 43.5 °F 40.2 °F 30.22 in Calm     88 % 0.00 in 160.00 W/m2
08:45 43.6 °F 40.6 °F 30.22 in Calm     89 % 0.00 in 151.00 W/m2
08:50 43.6 °F 40.6 °F 30.22 in Calm     89 % 0.00 in 213.00 W/m2
08:55 43.7 °F 40.7 °F 30.21 in Calm     89 % 0.00 in 142.00 W/m2
09:00 43.9 °F 40.9 °F 30.21 in Calm     89 % 0.00 in 255.00 W/m2
09:05 44.1 °F 41.1 °F 30.21 in Calm     89 % 0.00 in 508.00 W/m2
09:10 44.1 °F 41.1 °F 30.21 in SE 1.0 mph 4.0 mph 89 % 0.00 in 468.00 W/m2
09:15 44.3 °F 41.3 °F 30.21 in Calm   5.0 mph 89 % 0.00 in 223.00 W/m2
09:20 44.5 °F 41.5 °F 30.21 in Calm     89 % 0.00 in 216.00 W/m2
09:25 44.5 °F 41.5 °F 30.21 in Calm   1.0 mph 89 % 0.00 in 211.00 W/m2
09:30 44.6 °F 41.6 °F 30.21 in Calm   4.0 mph 89 % 0.00 in 267.00 W/m2
09:35 44.6 °F 41.6 °F 30.21 in Calm   1.0 mph 89 % 0.00 in 220.00 W/m2
09:40 44.8 °F 41.8 °F 30.22 in SE 4.0 mph 4.0 mph 89 % 0.00 in 297.00 W/m2
09:45 45.0 °F 42.0 °F 30.22 in Calm   4.0 mph 89 % 0.00 in 394.00 W/m2
09:50 45.1 °F 42.1 °F 30.21 in SE 1.0 mph 5.0 mph 89 % 0.00 in 564.00 W/m2
09:55 45.3 °F 41.7 °F 30.21 in Calm   4.0 mph 87 % 0.00 in 617.00 W/m2
10:00 45.6 °F 42.0 °F 30.22 in Calm   5.0 mph 87 % 0.00 in 192.00 W/m2
10:05 45.8 °F 42.2 °F 30.22 in Calm     87 % 0.00 in 271.00 W/m2
10:10 45.9 °F 42.0 °F 30.22 in Calm     86 % 0.00 in 360.00 W/m2
10:15 46.2 °F 42.2 °F 30.22 in SE 2.0 mph 5.0 mph 86 % 0.00 in 258.00 W/m2
10:20 46.3 °F 42.0 °F 30.22 in Calm   6.0 mph 85 % 0.00 in 285.00 W/m2
10:25 46.5 °F 42.2 °F 30.22 in Calm   8.0 mph 85 % 0.00 in 332.00 W/m2
10:30 46.8 °F 42.2 °F 30.22 in Calm   5.0 mph 84 % 0.00 in 248.00 W/m2
10:35 47.1 °F 42.8 °F 30.21 in SSE 1.0 mph 5.0 mph 85 % 0.00 in 227.00 W/m2
10:40 47.2 °F 42.9 °F 30.22 in Calm   5.0 mph 85 % 0.00 in 176.00 W/m2
10:45 47.5 °F 43.2 °F 30.22 in Calm     85 % 0.00 in 171.00 W/m2
10:50 47.6 °F 43.3 °F 30.22 in SSE 4.0 mph 8.0 mph 85 % 0.00 in 635.00 W/m2
10:55 47.5 °F 42.6 °F 30.22 in Calm   1.0 mph 83 % 0.00 in 190.00 W/m2
11:00 47.6 °F 42.7 °F 30.21 in Calm   4.0 mph 83 % 0.00 in 211.00 W/m2
11:05 47.7 °F 42.5 °F 30.21 in Calm     82 % 0.00 in 234.00 W/m2
11:10 47.8 °F 42.6 °F 30.21 in Calm     82 % 0.00 in 793.00 W/m2
11:15 47.9 °F 42.7 °F 30.21 in Calm   4.0 mph 82 % 0.00 in 411.00 W/m2
11:20 48.0 °F 42.1 °F 30.21 in Calm   1.0 mph 80 % 0.00 in 218.00 W/m2
11:25 48.1 °F 42.2 °F 30.21 in Calm   6.0 mph 80 % 0.00 in 260.00 W/m2
11:30 48.3 °F 42.8 °F 30.21 in Calm     81 % 0.00 in 207.00 W/m2
11:35 48.3 °F 42.8 °F 30.21 in Calm   2.0 mph 81 % 0.00 in 221.00 W/m2
11:40 48.4 °F 43.2 °F 30.20 in Calm     82 % 0.00 in 199.00 W/m2
11:45 48.4 °F 42.8 °F 30.20 in Calm     81 % 0.00 in 348.00 W/m2
11:50 48.4 °F 42.5 °F 30.20 in Calm   10.0 mph 80 % 0.00 in 780.00 W/m2
11:55 48.6 °F 43.0 °F 30.20 in SSE 5.0 mph 6.0 mph 81 % 0.00 in 694.00 W/m2
12:00 48.7 °F 42.8 °F 30.19 in South 5.0 mph 8.0 mph 80 % 0.00 in 640.00 W/m2
12:01 48.7 °F 42.8 °F 30.19 in South 7.0 mph 7.0 mph 80 % 0.00 in 643.00 W/m2
12:06 49.0 °F 43.4 °F 30.19 in Calm   4.0 mph 81 % 0.00 in 568.00 W/m2
12:11 49.1 °F 42.5 °F 30.19 in Calm     78 % 0.00 in 288.00 W/m2
12:16 49.3 °F 43.1 °F 30.18 in Calm     79 % 0.00 in 288.00 W/m2
12:21 49.5 °F 43.3 °F 30.18 in Calm   6.0 mph 79 % 0.00 in 214.00 W/m2
12:26 49.6 °F 43.7 °F 30.18 in SSE 2.0 mph 4.0 mph 80 % 0.00 in 172.00 W/m2
12:31 49.6 °F 43.0 °F 30.18 in Calm     78 % 0.00 in 777.00 W/m2
12:36 49.7 °F 43.1 °F 30.18 in SW 1.0 mph 3.0 mph 78 % 0.00 in 654.00 W/m2
12:41 49.8 °F 42.5 °F 30.17 in South 6.0 mph 7.0 mph 76 % 0.00 in 628.00 W/m2
12:46 49.9 °F 42.3 °F 30.17 in South 5.0 mph 5.0 mph 75 % 0.00 in 621.00 W/m2
12:51 50.1 °F 42.8 °F 30.17 in SW 4.0 mph 5.0 mph 76 % 0.00 in 668.00 W/m2
12:56 50.2 °F 41.9 °F 30.17 in SSE 9.0 mph 10.0 mph 73 % 0.00 in 645.00 W/m2
13:01 50.3 °F 42.7 °F 30.17 in Calm   6.0 mph 75 % 0.00 in 666.00 W/m2
13:06 50.5 °F 42.2 °F 30.16 in SW 2.0 mph 7.0 mph 73 % 0.00 in 531.00 W/m2
13:11 50.6 °F 42.6 °F 30.16 in Calm     74 % 0.00 in 193.00 W/m2
13:16 50.6 °F 42.6 °F 30.16 in Calm     74 % 0.00 in 104.00 W/m2
13:21 50.5 °F 42.2 °F 30.16 in Calm   1.0 mph 73 % 0.00 in 599.00 W/m2
13:26 50.5 °F 41.8 °F 30.16 in Calm   2.0 mph 72 % 0.00 in 555.00 W/m2
13:31 50.4 °F 42.1 °F 30.16 in WSW 1.0 mph 5.0 mph 73 % 0.00 in 557.00 W/m2
13:36 50.5 °F 42.2 °F 30.16 in Calm   4.0 mph 73 % 0.00 in 555.00 W/m2
13:41 50.5 °F 41.5 °F 30.16 in West 1.0 mph 7.0 mph 71 % 0.00 in 608.00 W/m2
13:47 50.5 °F 41.8 °F 30.16 in SW 1.0 mph 8.0 mph 72 % 0.00 in 148.00 W/m2
13:52 50.5 °F 42.9 °F 30.16 in Calm     75 % 0.00 in 146.00 W/m2
13:57 50.4 °F 42.8 °F 30.16 in SW 4.0 mph 4.0 mph 75 % 0.00 in 118.00 W/m2
14:02 50.3 °F 41.6 °F 30.16 in Calm     72 % 0.00 in 134.00 W/m2
14:07 50.1 °F 41.8 °F 30.16 in WNW 1.0 mph 3.0 mph 73 % 0.00 in 570.00 W/m2
14:12 50.1 °F 41.4 °F 30.16 in WNW 1.0 mph 4.0 mph 72 % 0.00 in 527.00 W/m2
14:17 50.1 °F 41.4 °F 30.15 in Calm   1.0 mph 72 % 0.00 in 478.00 W/m2
14:22 50.2 °F 41.2 °F 30.15 in Calm   3.0 mph 71 % 0.00 in 476.00 W/m2
14:27 50.3 °F 42.0 °F 30.15 in Calm     73 % 0.00 in 399.00 W/m2
14:32 50.3 °F 41.6 °F 30.16 in WNW 3.0 mph 5.0 mph 72 % 0.00 in 98.00 W/m2
14:37 50.3 °F 42.3 °F 30.15 in Calm     74 % 0.00 in 422.00 W/m2
14:42 50.3 °F 42.3 °F 30.16 in Calm     74 % 0.00 in 313.00 W/m2
14:47 50.2 °F 42.9 °F 30.15 in Calm     76 % 0.00 in 394.00 W/m2
14:52 50.2 °F 42.6 °F 30.15 in Calm     75 % 0.00 in 350.00 W/m2
14:57 50.1 °F 42.2 °F 30.15 in Calm   3.0 mph 74 % 0.00 in 367.00 W/m2
15:02 50.1 °F 42.8 °F 30.15 in Calm   3.0 mph 76 % 0.00 in 88.00 W/m2
15:07 49.9 °F 42.3 °F 30.16 in WNW 3.0 mph 5.0 mph 75 % 0.00 in 213.00 W/m2
15:12 49.7 °F 42.5 °F 30.16 in Calm   2.0 mph 76 % 0.00 in 111.00 W/m2
15:17 49.6 °F 42.7 °F 30.16 in Calm     77 % 0.00 in 281.00 W/m2
15:22 49.5 °F 42.6 °F 30.16 in Calm   2.0 mph 77 % 0.00 in 40.00 W/m2
15:27 49.4 °F 42.8 °F 30.16 in Calm     78 % 0.00 in 47.00 W/m2
15:32 49.3 °F 42.7 °F 30.16 in Calm     78 % 0.00 in 155.00 W/m2
15:37 49.1 °F 42.9 °F 30.16 in Calm     79 % 0.00 in 54.00 W/m2
15:42 49.0 °F 43.1 °F 30.16 in Calm   1.0 mph 80 % 0.00 in 69.00 W/m2
15:45 49.0 °F 43.4 °F 30.16 in Calm   1.0 mph 81 % 0.00 in 63.00 W/m2
15:50 48.8 °F 43.2 °F 30.16 in Calm     81 % 0.00 in 56.00 W/m2
15:55 48.5 °F 43.0 °F 30.16 in Calm     81 % 0.00 in 128.00 W/m2
16:00 48.3 °F 43.1 °F 30.16 in Calm     82 % 0.00 in 32.00 W/m2
16:05 48.1 °F 42.9 °F 30.16 in Calm     82 % 0.00 in 32.00 W/m2
16:10 47.8 °F 42.9 °F 30.16 in Calm     83 % 0.00 in 28.00 W/m2
16:15 47.6 °F 42.7 °F 30.16 in Calm     83 % 0.00 in 65.00 W/m2
16:20 47.3 °F 42.7 °F 30.16 in Calm     84 % 0.00 in 56.00 W/m2
16:25 47.1 °F 42.5 °F 30.16 in Calm     84 % 0.00 in 42.00 W/m2
16:30 46.9 °F 42.3 °F 30.16 in Calm     84 % 0.00 in 32.00 W/m2
16:35 46.7 °F 42.1 °F 30.16 in Calm     84 % 0.00 in 23.00 W/m2
16:40 46.5 °F 41.9 °F 30.16 in Calm     84 % 0.00 in 16.00 W/m2
16:45 46.4 °F 42.1 °F 30.17 in Calm     85 % 0.00 in 12.00 W/m2
16:50 46.2 °F 42.0 °F 30.17 in Calm     85 % 0.00 in 11.00 W/m2
16:55 46.1 °F 41.8 °F 30.16 in Calm     85 % 0.00 in 7.00 W/m2
17:00 45.9 °F 41.7 °F 30.17 in Calm   3.0 mph 85 % 0.00 in 5.00 W/m2
17:05 45.7 °F 41.5 °F 30.16 in Calm     85 % 0.00 in 0.00 W/m2
17:10 45.6 °F 41.7 °F 30.17 in Calm     86 % 0.00 in 0.00 W/m2
17:15 45.4 °F 41.5 °F 30.17 in Calm     86 % 0.00 in 0.00 W/m2
17:20 45.1 °F 41.2 °F 30.17 in Calm     86 % 0.00 in 0.00 W/m2
17:25 45.0 °F 41.1 °F 30.17 in Calm     86 % 0.00 in 0.00 W/m2
17:35 44.6 °F 40.7 °F 30.17 in Calm     86 % 0.00 in 0.00 W/m2
17:40 44.4 °F 40.5 °F 30.18 in Calm     86 % 0.00 in 0.00 W/m2
17:45 44.2 °F 40.6 °F 30.18 in Calm     87 % 0.00 in 0.00 W/m2
17:50 44.1 °F 40.5 °F 30.18 in West 2.0 mph 4.0 mph 87 % 0.00 in 0.00 W/m2
17:55 43.9 °F 40.3 °F 30.18 in WNW 3.0 mph 6.0 mph 87 % 0.00 in 0.00 W/m2
18:00 43.8 °F 40.2 °F 30.18 in WNW 2.0 mph 5.0 mph 87 % 0.00 in 0.00 W/m2
18:05 43.7 °F 40.1 °F 30.18 in Calm   3.0 mph 87 % 0.00 in 0.00 W/m2
18:10 43.5 °F 39.9 °F 30.18 in WNW 2.0 mph 4.0 mph 87 % 0.00 in 0.00 W/m2
18:15 43.3 °F 40.0 °F 30.18 in Calm   2.0 mph 88 % 0.00 in 0.00 W/m2
18:20 43.2 °F 39.6 °F 30.18 in Calm     87 % 0.00 in 0.00 W/m2
18:25 43.1 °F 39.5 °F 30.18 in Calm     87 % 0.00 in 0.00 W/m2
18:30 42.9 °F 39.6 °F 30.18 in Calm     88 % 0.00 in 0.00 W/m2
18:35 42.8 °F 39.5 °F 30.18 in Calm   5.0 mph 88 % 0.00 in 0.00 W/m2
18:40 42.7 °F 39.4 °F 30.18 in Calm     88 % 0.00 in 0.00 W/m2
18:45 42.6 °F 39.3 °F 30.18 in Calm     88 % 0.00 in 0.00 W/m2
18:50 42.5 °F 39.2 °F 30.18 in WNW 3.0 mph 4.0 mph 88 % 0.00 in 0.00 W/m2
18:55 42.4 °F 39.1 °F 30.18 in WNW 3.0 mph 4.0 mph 88 % 0.00 in 0.00 W/m2
19:00 42.3 °F 39.0 °F 30.18 in Calm   5.0 mph 88 % 0.00 in 0.00 W/m2
19:15 42.0 °F 38.7 °F 30.19 in Calm   2.0 mph 88 % 0.00 in 0.00 W/m2
19:19 42.0 °F 38.7 °F 30.19 in Calm     88 % 0.00 in 0.00 W/m2
19:20 42.0 °F 38.7 °F 30.19 in Calm     88 % 0.00 in 0.00 W/m2
19:23 42.0 °F 38.7 °F 30.19 in Calm     88 % 0.00 in 0.00 W/m2
19:28 41.9 °F 38.6 °F 30.19 in Calm     88 % 0.00 in 0.00 W/m2
19:33 41.9 °F 38.6 °F 30.19 in Calm     88 % 0.00 in 0.00 W/m2
19:38 41.8 °F 38.5 °F 30.19 in Calm     88 % 0.00 in 0.00 W/m2
19:43 41.8 °F 38.5 °F 30.19 in Calm     88 % 0.00 in 0.00 W/m2
19:48 41.8 °F 38.5 °F 30.19 in Calm     88 % 0.00 in 0.00 W/m2
19:53 41.7 °F 38.4 °F 30.19 in Calm     88 % 0.00 in 0.00 W/m2
19:58 41.7 °F 38.4 °F 30.19 in Calm     88 % 0.00 in 0.00 W/m2
20:03 41.7 °F 38.4 °F 30.19 in Calm     88 % 0.00 in 0.00 W/m2
20:08 41.6 °F 38.3 °F 30.19 in Calm     88 % 0.00 in 0.00 W/m2
20:13 41.6 °F 38.3 °F 30.19 in Calm     88 % 0.00 in 0.00 W/m2
20:18 41.4 °F 38.1 °F 30.19 in Calm     88 % 0.00 in 0.00 W/m2
20:23 41.4 °F 38.1 °F 30.20 in Calm     88 % 0.00 in 0.00 W/m2
20:33 41.3 °F 38.0 °F 30.20 in Calm     88 % 0.00 in 0.00 W/m2
20:38 41.3 °F 38.0 °F 30.20 in WNW 3.0 mph 3.0 mph 88 % 0.00 in 0.00 W/m2
20:43 41.4 °F 38.1 °F 30.20 in Calm     88 % 0.00 in 0.00 W/m2
20:48 41.4 °F 38.1 °F 30.20 in WNW 3.0 mph 5.0 mph 88 % 0.00 in 0.00 W/m2
20:53 41.4 °F 38.1 °F 30.20 in WNW 1.0 mph 5.0 mph 88 % 0.00 in 0.00 W/m2
20:58 41.4 °F 38.1 °F 30.20 in Calm   5.0 mph 88 % 0.00 in 0.00 W/m2
21:03 41.5 °F 38.2 °F 30.20 in Calm   4.0 mph 88 % 0.00 in 0.00 W/m2
21:08 41.5 °F 38.2 °F 30.20 in Calm   4.0 mph 88 % 0.00 in 0.00 W/m2
21:13 41.6 °F 38.6 °F 30.20 in WNW 4.0 mph 6.0 mph 89 % 0.00 in 0.00 W/m2
21:23 41.8 °F 38.8 °F 30.20 in East 2.0 mph 12.0 mph 89 % 0.00 in 0.00 W/m2
21:27 41.8 °F 38.8 °F 30.20 in East 5.0 mph 11.0 mph 89 % 0.00 in 0.00 W/m2
21:32 41.7 °F 38.7 °F 30.20 in ESE 4.0 mph 9.0 mph 89 % 0.00 in 0.00 W/m2
21:37 41.8 °F 38.8 °F 30.21 in East 2.0 mph 8.0 mph 89 % 0.00 in 0.00 W/m2
21:42 41.8 °F 38.8 °F 30.21 in Calm   7.0 mph 89 % 0.00 in 0.00 W/m2
21:47 41.8 °F 38.8 °F 30.21 in ESE 6.0 mph 11.0 mph 89 % 0.00 in 0.00 W/m2
21:52 41.8 °F 38.8 °F 30.21 in ESE 6.0 mph 8.0 mph 89 % 0.00 in 0.00 W/m2
21:57 41.8 °F 38.8 °F 30.21 in ESE 6.0 mph 6.0 mph 89 % 0.00 in 0.00 W/m2
22:02 41.8 °F 38.8 °F 30.21 in ESE 6.0 mph 7.0 mph 89 % 0.00 in 0.00 W/m2
22:07 41.8 °F 38.8 °F 30.21 in ESE 6.0 mph 9.0 mph 89 % 0.00 in 0.00 W/m2
22:12 41.8 °F 38.8 °F 30.21 in Calm   8.0 mph 89 % 0.00 in 0.00 W/m2
22:17 41.8 °F 38.8 °F 30.21 in ESE 5.0 mph 9.0 mph 89 % 0.00 in 0.00 W/m2
22:22 41.8 °F 38.8 °F 30.21 in ESE 5.0 mph 11.0 mph 89 % 0.00 in 0.00 W/m2
22:27 41.8 °F 38.8 °F 30.21 in Calm   8.0 mph 89 % 0.00 in 0.00 W/m2
22:32 41.8 °F 38.8 °F 30.21 in East 2.0 mph 9.0 mph 89 % 0.00 in 0.00 W/m2
22:37 41.8 °F 38.8 °F 30.21 in East 5.0 mph 7.0 mph 89 % 0.00 in 0.00 W/m2
22:42 41.8 °F 38.8 °F 30.21 in ESE 7.0 mph 7.0 mph 89 % 0.00 in 0.00 W/m2
22:47 41.7 °F 38.7 °F 30.21 in ESE 6.0 mph 11.0 mph 89 % 0.00 in 0.00 W/m2
22:52 41.7 °F 38.7 °F 30.21 in ESE 1.0 mph 9.0 mph 89 % 0.00 in 0.00 W/m2
22:57 41.7 °F 38.7 °F 30.22 in ESE 2.0 mph 11.0 mph 89 % 0.00 in 0.00 W/m2
23:02 41.7 °F 38.7 °F 30.22 in East 2.0 mph 9.0 mph 89 % 0.00 in 0.00 W/m2
23:07 41.6 °F 38.6 °F 30.21 in ESE 6.0 mph 7.0 mph 89 % 0.00 in 0.00 W/m2
23:13 41.6 °F 38.6 °F 30.22 in ESE 4.0 mph 8.0 mph 89 % 0.00 in 0.00 W/m2
23:18 41.6 °F 38.6 °F 30.22 in East 7.0 mph 8.0 mph 89 % 0.00 in 0.00 W/m2
23:23 41.6 °F 38.6 °F 30.22 in East 7.0 mph 8.0 mph 89 % 0.00 in 0.00 W/m2
23:28 41.6 °F 38.6 °F 30.22 in ESE 5.0 mph 9.0 mph 89 % 0.00 in 0.00 W/m2
23:33 41.6 °F 38.6 °F 30.22 in Calm   6.0 mph 89 % 0.00 in 0.00 W/m2
23:38 41.6 °F 38.6 °F 30.22 in Calm   6.0 mph 89 % 0.00 in 0.00 W/m2
23:43 41.6 °F 38.6 °F 30.23 in Calm   7.0 mph 89 % 0.00 in 0.00 W/m2
23:48 41.5 °F 38.2 °F 30.23 in Calm   4.0 mph 88 % 0.00 in 0.00 W/m2
23:53 41.5 °F 38.2 °F 30.23 in ESE 6.0 mph 6.0 mph 88 % 0.00 in 0.00 W/m2
23:58 41.5 °F 38.2 °F 30.23 in Calm   4.0 mph 88 % 0.00 in 0.00 W/m2
Juneau County Weather
Compliments of Weather Underground - 4.5 mb
 WU-history PHP script courtesy of   Juneau County Weather.
powered by Cumulus v1.9.3 (1059)
Ambient Weather VWS v14.00
Top Contact Website Map Copyright © 2007 - 2018 Foresthillweather.com Never base important decisions on this or any weather information obtained from the Internet